Flag for Sweden Weather past 2 weeks in Gothenburg, Sweden

Now
46 °F

Sunny.


Feels Like: 39 °F
Forecast: 31 / 49 °F
Wind: 18 mph from South

Location: Gothenburg / Save


UV Index: 0 (Low)

Visibility: 10 mi


Pressure: 30.01 "Hg

Humidity: 66%

Dew point: 36 °F

Location of GothenburgLocation

Historic Weather in Gothenburg

°F

Gothenburg temperature yesterday

Maximum temperature yesterday: 52 °F (at 2:50 PM)
Minimum temperature yesterday: 37 °F (at 8:24 AM)
Average temperature yesterday: 46 °F

Past Weeks' High & Low Weather Summary

 TemperatureHumidityPressure
High55 °F (Apr 7, 4:20 PM)100% (Apr 3, 4:50 AM)30.39 "Hg (Apr 3, 4:50 AM)
Low27 °F (Apr 3, 3:50 AM)34% (Apr 2, 1:20 PM)29.45 "Hg (Apr 14, 4:50 AM)
Average44 °F79%29.88 "Hg
* Reported Apr 2 7:20 AM — Apr 17 7:50 AM, Gothenburg, Weather by CustomWeather, © 2014

Note: Actual official high and low records may vary slightly from our data, if they occured in-between our weather recording intervals... More about our weather records

Advertising

Historic Weather Conditions — Data for Previous 24 hours

 ConditionsComfort  
Time TempWeatherWind HumidityBarometerVisibility
7:50 AM
Apr 17
46 °FSunny.18 mph66%30.01 "Hg10 mi
7:20 AM45 °FSunny.18 mph71%30.04 "Hg10 mi
6:50 AM45 °FClear.17 mph71%30.07 "Hg10 mi
6:20 AM45 °FClear.18 mph71%30.07 "Hg10 mi
5:50 AM43 °FClear.15 mph76%30.07 "Hg10 mi
5:20 AM43 °FClear.15 mph76%30.09 "Hg10 mi
4:50 AM45 °FClear.15 mph66%30.12 "Hg10 mi
4:20 AM43 °FClear.13 mph71%30.12 "Hg10 mi
3:50 AM43 °FClear.12 mph76%30.15 "Hg10 mi
3:20 AM43 °FClear.9 mph76%30.15 "Hg10 mi
2:50 AM43 °FClear.9 mph81%30.18 "Hg10 mi
2:20 AM43 °FClear.8 mph81%30.18 "Hg10 mi
1:50 AM43 °FClear.7 mph81%30.21 "Hg10 mi
1:20 AM43 °FClear.7 mph81%30.21 "Hg10 mi
12:50 AM43 °FClear.6 mph87%30.21 "Hg10 mi
12:20 AM41 °FClear.5 mph93%30.24 "Hg10 mi
11:50 PM
Apr 16
41 °FClear.3 mph87%30.24 "Hg10 mi
11:20 PM39 °FClear.3 mph93%30.24 "Hg10 mi
10:50 PM39 °FClear.2 mph93%30.24 "Hg10 mi
10:20 PM39 °FClear.5 mph93%30.27 "Hg10 mi
9:50 PM39 °FPassing clouds.2 mph87%30.27 "HgN/A
9:26 PM41 °FClear.1 mph87%30.27 "Hg10 mi
8:50 PM43 °FSunny.1 mph76%30.27 "Hg10 mi
7:50 PM46 °FSunny.6 mph71%30.30 "Hg10 mi
6:50 PM48 °FPassing clouds.9 mph71%30.30 "HgN/A
6:20 PM50 °FPartly sunny.12 mph54%30.30 "HgN/A
5:58 PM50 °FSunny.13 mph54%30.30 "Hg10 mi
5:20 PM50 °FSunny.12 mph58%30.33 "Hg10 mi
4:50 PM50 °FSunny.9 mph50%30.33 "Hg10 mi
4:20 PM50 °FSunny.12 mph54%30.33 "Hg10 mi
3:50 PM52 °FSunny.13 mph50%30.33 "Hg10 mi
3:20 PM52 °FSunny.14 mph54%30.33 "Hg10 mi
2:50 PM52 °FSunny.13 mph50%30.36 "Hg10 mi
2:20 PM50 °FSunny.15 mph54%30.36 "Hg10 mi
1:50 PM50 °FSunny.14 mph50%30.36 "Hg10 mi
1:20 PM50 °FSunny.12 mph50%30.36 "Hg10 mi
12:50 PM50 °FSunny.13 mph50%30.36 "Hg10 mi
12:20 PM50 °FSunny.10 mph54%30.36 "Hg10 mi
11:50 AM50 °FScattered clouds.9 mph58%30.39 "HgN/A
11:20 AM50 °FSunny.9 mph54%30.39 "Hg10 mi
10:50 AM48 °FSunny.8 mph58%30.39 "Hg10 mi
10:20 AM46 °FSunny.8 mph66%30.39 "Hg10 mi
9:50 AM46 °FSunny.7 mph71%30.39 "Hg10 mi
9:20 AM43 °FSunny.5 mph81%30.39 "Hg10 mi
8:50 AM37 °FSunny.2 mph81%30.39 "Hg10 mi
8:24 AM37 °FSunny.No wind81%30.39 "Hg10 mi
Weather by CustomWeather, © 2014

See weather overview